GW3202 Weather Reports


time (UTC)temp
F
wind
direction
speed
knots
gust
knots
rain 1hr
in
rain 24hr
in
rain mn
in
humidity
%
barometer
mb
20260506062004 64 249 0.0 1.7 0.00 0.00 0.00 72 1019.9
20260506061003 65 294 0.9 2.6 0.00 0.00 0.00 71 1020.0
20260506051003 70 125 1.7 10.4 0.00 0.00 0.00 67 1019.9
20260506045003 70 68 0.0 5.2 0.00 0.00 0.00 67 1019.7
20260506044004 71 0 2.6 8.7 0.00 0.00 0.00 66 1019.5
20260506042003 71 152 9.6 17.4 0.00 0.00 0.00 66 1019.3
20260506040003 71 141 7.0 20.0 0.00 0.00 0.00 64 1019.0
20260506035003 72 154 14.8 20.0 0.00 0.00 0.00 63 1018.8
20260506034004 72 124 8.7 20.0 0.00 0.00 0.00 64 1018.8
20260506032032 72 137 8.7 22.6 0.00 0.00 0.00 62 1018.5
20260506031009 72 149 11.3 20.0 0.00 0.00 0.00 62 1018.3
20260506030007 73 146 12.2 20.9 0.00 0.00 0.00 62 1018.4
20260506025009 73 146 10.4 22.6 0.00 0.00 0.00 63 1018.2
20260506024003 74 153 10.4 20.0 0.00 0.00 0.00 62 1017.9
20260506022004 75 103 8.7 19.1 0.00 0.00 0.00 61 1017.8
20260506021003 75 150 8.7 18.2 0.00 0.00 0.00 61 1017.8
20260506020003 75 153 8.7 17.4 0.00 0.00 0.00 60 1017.8
20260506015003 75 146 8.7 19.1 0.00 0.00 0.00 60 1017.9
20260506014003 76 177 10.4 18.2 0.00 0.00 0.00 60 1017.5
20260506013003 76 138 7.8 18.2 0.00 0.00 0.00 58 1017.3
20260506012003 77 148 10.4 17.4 0.00 0.00 0.00 56 1017.3
20260506011003 78 157 7.8 18.2 0.00 0.00 0.00 53 1017.3
20260506010003 79 127 6.1 18.2 0.00 0.00 0.00 51 1017.1
20260506005003 79 180 3.5 19.1 0.00 0.00 0.00 49 1017.0
20260506004003 80 153 8.7 20.0 0.00 0.00 0.00 47 1017.2
20260506003003 81 158 7.8 17.4 0.00 0.00 0.00 44 1017.0
20260506002003 82 152 7.0 20.9 0.00 0.00 0.00 42 1017.2
20260506001003 82 157 7.0 20.0 0.00 0.00 0.00 40 1017.0
20260506000003 83 132 7.8 19.1 0.00 0.00 0.00 40 1016.7
20260505235003 83 163 7.8 19.1 0.00 0.00 0.00 41 1016.7
20260505234004 83 139 9.6 20.0 0.00 0.00 0.00 41 1016.9
20260505233003 84 179 5.2 17.4 0.00 0.00 0.00 41 1016.8
20260505232003 84 160 8.7 13.9 0.00 0.00 0.00 42 1016.9
20260505231009 84 185 6.1 15.6 0.00 0.00 0.00 45 1016.8
20260505230003 85 177 6.1 14.8 0.00 0.00 0.00 45 1016.8
20260505224004 85 158 7.8 17.4 0.00 0.00 0.00 44 1017.1
20260505223003 85 162 7.0 14.8 0.00 0.00 0.00 42 1017.2
20260505220004 87 143 2.6 13.9 0.00 0.00 0.00 33 1017.2
20260505215004 89 207 3.5 13.9 0.00 0.00 0.00 32 1017.6
20260505213004 89 214 6.1 12.2 0.00 0.00 0.00 31 1017.8
20260505212004 88 148 2.6 11.3 0.00 0.00 0.00 32 1017.8
20260505211004 89 163 4.3 13.9 0.00 0.00 0.00 31 1017.9
20260505210003 89 202 3.5 10.4 0.00 0.00 0.00 31 1017.8
20260505205003 90 250 0.0 11.3 0.00 0.00 0.00 30 1018.3
20260505204005 88 167 6.1 15.6 0.00 0.00 0.00 31 1018.3
20260505203003 89 246 4.3 7.8 0.00 0.00 0.00 30 1018.4
20260505202004 89 207 4.3 11.3 0.00 0.00 0.00 29 1018.4
20260505201003 88 171 3.5 8.7 0.00 0.00 0.00 30 1018.5
20260505200004 89 218 4.3 20.9 0.00 0.00 0.00 29 1018.7
20260505195004 88 254 2.6 8.7 0.00 0.00 0.00 30 1018.9
20260505194003 88 212 4.3 13.0 0.00 0.00 0.00 30 1019.0
20260505193003 88 192 4.3 8.7 0.00 0.00 0.00 29 1019.2
20260505191004 86 131 3.5 11.3 0.00 0.00 0.00 30 1019.6
20260505190004 85 164 3.5 10.4 0.00 0.00 0.00 30 1019.6
20260505185005 85 174 5.2 10.4 0.00 0.00 0.00 30 1019.7
20260505184004 86 216 3.5 12.2 0.00 0.00 0.00 30 1019.7
20260505183003 85 188 7.0 11.3 0.00 0.00 0.00 31 1019.8
20260505181003 83 150 2.6 13.9 0.00 0.00 0.00 38 1020.2
20260505180004 83 144 2.6 12.2 0.00 0.00 0.00 39 1020.3
20260505175004 83 164 2.6 12.2 0.00 0.00 0.00 35 1020.2
20260505174004 82 167 5.2 13.0 0.00 0.00 0.00 39 1020.2
20260505172005 82 155 6.1 11.3 0.00 0.00 0.00 37 1020.5
20260505171004 81 161 5.2 11.3 0.00 0.00 0.00 39 1020.5
20260505170004 82 20 1.7 8.7 0.00 0.00 0.00 38 1020.5
20260505164003 81 118 7.8 10.4 0.00 0.00 0.00 38 1020.5
20260505163004 81 145 1.7 7.8 0.00 0.00 0.00 40 1020.8
20260505162004 81 174 1.7 6.1 0.00 0.00 0.00 40 1020.7
20260505161004 80 165 4.3 5.2 0.00 0.00 0.00 42 1020.6
20260505153003 76 86 1.7 2.6 0.00 0.00 0.00 47 1020.9
20260505152003 72 279 0.9 2.6 0.00 0.00 0.00 51 1021.0
20260505151004 73 104 0.0 2.6 0.00 0.00 0.00 50 1021.1
20260505125004 59 243 0.0 1.7 0.00 0.00 0.00 68 1020.3
20260505124003 59 135 0.9 2.6 0.00 0.00 0.00 69 1020.1
20260505123004 59 138 0.9 2.6 0.00 0.00 0.00 68 1020.2
20260505122004 59 109 1.7 4.3 0.00 0.00 0.00 68 1020.1
20260505121004 59 102 1.7 2.6 0.00 0.00 0.00 68 1020.1
20260505120005 58 65 0.0 2.6 0.00 0.00 0.00 69 1020.1
20260505115004 59 122 1.7 2.6 0.00 0.00 0.00 72 1020.0
20260505114003 59 178 1.7 2.6 0.00 0.00 0.00 71 1020.1
20260505113004 60 161 0.9 2.6 0.00 0.00 0.00 67 1019.8
20260505112004 60 120 0.9 4.3 0.00 0.00 0.00 67 1019.7
20260505111004 60 70 0.0 1.7 0.00 0.00 0.00 67 1019.7
20260505102004 60 227 0.0 0.9 0.00 0.00 0.00 66 1019.6
20260505101004 60 234 0.0 0.9 0.00 0.00 0.00 67 1019.5
20260505100004 60 106 0.0 1.7 0.00 0.00 0.00 66 1019.7
20260505095004 60 236 0.0 1.7 0.00 0.00 0.00 65 1019.7
20260505093004 61 86 0.9 1.7 0.00 0.00 0.00 63 1019.6
20260505092005 62 100 0.0 4.3 0.00 0.00 0.00 60 1019.6
20260505090004 62 121 1.7 4.3 0.00 0.00 0.00 60 1019.9
20260505085003 62 142 1.7 2.6 0.00 0.00 0.00 63 1019.7
20260505084004 62 238 1.7 2.6 0.00 0.00 0.00 63 1019.7
20260505082004 63 98 0.9 4.3 0.00 0.00 0.00 62 1019.8
20260505081004 63 93 2.6 5.2 0.00 0.00 0.00 62 1019.8
20260505074004 64 190 0.9 0.9 0.00 0.00 0.00 57 1020.1
20260505073004 64 356 0.9 2.6 0.00 0.00 0.00 57 1020.2
20260505072005 64 105 0.9 1.7 0.00 0.00 0.00 56 1020.2
20260505071013 64 254 0.0 1.7 0.00 0.00 0.00 56 1020.2